User: anonymous   Login
Location: Alvis C Story Elementary School
(33.0968°N, 96.6364°W)
Time: 05:25:10
(UTC+00:00)
Language:

Cosmos 1500 Rocket - Orbit

View from above orbital plane
View from above orbital plane
View from above satellite
View from above satellite

Ground track
Ground track

The orbit data is extracted from the following two-line orbital elements,

1 14373U 83099B   22139.34931019  .00000562  00000-0  64393-4 0  9996
2 14373  82.5410   4.7245 0021466  57.6102 302.7186 14.83955485 66283
Epoch (UTC): 19 May 2022 08:23:00
Eccentricity: 0.0021466
inclination: 82.5410°
perigee height: 602 km
apogee height: 632 km
right ascension of ascending node: 4.7245°
argument of perigee: 57.6102°
revolutions per day: 14.83955485
mean anomaly at epoch: 302.7186°
orbit number at epoch: 6628

The dashed part of the orbit path shows where the satellite is in the earth's shadow,  

DLR